Tracking 19575 objects as of 19-Feb-2019
HD Live streaming from Space Station
objects crossing your sky now

COSMOS 1433

Track COSMOS 1433 now!
10-day predictions
COSMOS 1433 is classified as:


NORAD ID: 13765
Int'l Code: 1983-002E
Perigee: 1,453.2 km
Apogee: 1,474.1 km
Inclination: 74.0 °
Period: 115.0 minutes
Semi major axis: 7834 km
RCS: 0.733 m2 (medium)
Launch date: January 19, 1983
Source: Commonwealth of Independent States (former USSR) (CIS)
Launch site: PLESETSK MISSILE AND SPACE COMPLEX (PKMTR)
aabbcc
Your satellite tracking list
Your tracking list is empty




NASA's NSSDC Master Catalog

Two Line Element Set (TLE):
1 13765U 83002E   19049.93705088 -.00000016 +00000-0 -11693-5 0  9992
2 13765 074.0215 222.6469 0013352 039.0263 073.5747 12.51905383649303
Source of the keplerian elements: AFSPC